Weather History for KFOK - March, 2013

Change the Weather History Date:

Sunday, March 31, 2013

  Actual Average Record
Temperature  
Mean Temperature 37 °F -  
Max Temperature 51 °F 49 °F 70 °F (1999)
Min Temperature 23 °F 32 °F 19 °F (2008)
Degree Days  
Heating Degree Days 28    
Moisture  
Dew Point 25 °F    
Average Humidity 85    
Maximum Humidity 100    
Minimum Humidity 52    
Precipitation  
Precipitation 0.03 in - - ()
Sea Level Pressure  
Sea Level Pressure 30.11 in    
Wind  
Wind Speed 1 mph (South)    
Max Wind Speed 9 mph    
Max Gust Speed 17 mph    
Visibility 4 miles    
Events Fog , Rain    
Averages and records for this station are not official NWS values.
T = Trace of Precipitation, MM = Missing Value Source: NWS Daily Summary

Daily Weather History Graph

Daily Weather History Graph

Search for Another Location

Airport or City:

Trip Planner

Search our weather history database for the weather conditions in past years. The results will help you decide how hot, cold, wet, or windy it might be!

Date:

Astronomy

Mar. 31, 2013 Rise Set
Actual Time 6:35 AM EDT 7:14 PM EDT
Civil Twilight 6:07 AM EDT 7:42 PM EDT
Nautical Twilight 5:34 AM EDT 8:14 PM EDT
Astronomical Twilight 5:01 AM EDT 8:48 PM EDT
Moon No Moon Rise 9:18 AM EDT (3/31)
Length of Visible Light 13h 34m
Length of Day
12h 39m
Waning Gibbous, 78% of the Moon is Illuminated
Mar 31
Waning Gibbous
Apr 3
Last Quarter
Apr 10
New
Apr 18
First Quarter
Apr 25
Full

Hourly Weather History & Observations

Time (EDT) Temp. Windchill Dew Point Humidity Pressure Visibility Wind Dir Wind Speed Gust Speed Precip Events Conditions
12:53 AM 27.0 °F - 21.9 °F 81% 30.16 in 10.0 mi Calm Calm - N/A   Clear
1:53 AM 25.0 °F - 21.0 °F 85% 30.15 in 10.0 mi Calm Calm - N/A   Clear
2:53 AM 23.0 °F - 19.9 °F 88% 30.14 in 10.0 mi Calm Calm - N/A   Clear
3:53 AM 23.0 °F - 19.9 °F 88% 30.14 in 3.0 mi Calm Calm - N/A   Partly Cloudy
3:55 AM 23.0 °F - 19.4 °F 86% 30.13 in 1.5 mi Calm Calm - N/A   Partly Cloudy
4:05 AM 23.0 °F - 19.4 °F 86% 30.13 in 2.5 mi Calm Calm - N/A   Mostly Cloudy
4:12 AM 23.0 °F - 19.4 °F 86% 30.13 in 5.0 mi Calm Calm - N/A   Mostly Cloudy
4:16 AM 23.0 °F - 19.4 °F 86% 30.13 in 0.5 mi Calm Calm - N/A Fog Light Freezing Fog
4:24 AM 23.0 °F - 19.4 °F 86% 30.13 in 0.2 mi Calm Calm - N/A Fog Light Freezing Fog
4:38 AM 24.8 °F - 21.2 °F 86% 30.13 in 0.2 mi Calm Calm - N/A Fog Light Freezing Fog
4:49 AM 23.0 °F - 19.4 °F 86% 30.13 in 0.5 mi Calm Calm - N/A Fog Light Freezing Fog
4:53 AM 24.1 °F - 21.0 °F 88% 30.14 in 0.2 mi Calm Calm - N/A Fog Light Freezing Fog
5:53 AM 24.1 °F - 21.9 °F 91% 30.14 in 0.2 mi Calm Calm - N/A Fog Light Freezing Fog
6:28 AM 24.8 °F - 21.2 °F 86% 30.14 in 0.8 mi Calm Calm - N/A   Mist
6:30 AM 24.8 °F - 21.2 °F 86% 30.14 in 1.0 mi Calm Calm - N/A   Mist
6:38 AM 24.8 °F - 21.2 °F 86% 30.14 in 0.8 mi Calm Calm - N/A   Mist
6:50 AM 24.8 °F - 21.2 °F 86% 30.14 in 2.0 mi Calm Calm - N/A   Overcast
6:51 AM 24.1 °F - 21.9 °F 91% 30.14 in 2.5 mi Calm Calm - N/A   Overcast
7:06 AM 24.8 °F - 23.0 °F 93% 30.13 in 4.0 mi Calm Calm - N/A   Overcast
7:45 AM 28.4 °F - 28.4 °F 100% 30.13 in 6.0 mi Calm Calm - N/A   Scattered Clouds
7:53 AM 30.9 °F - 30.0 °F 96% 30.14 in 6.0 mi Calm Calm - N/A   Partly Cloudy
8:53 AM 44.1 °F 40.8 °F 37.9 °F 79% 30.14 in 10.0 mi SSW 5.8 mph - N/A   Clear
9:53 AM 50.0 °F - 33.1 °F 52% 30.13 in 10.0 mi Variable 6.9 mph - N/A   Clear
10:53 AM 51.1 °F - 34.0 °F 52% 30.13 in 10.0 mi SW 9.2 mph - N/A   Clear
8:53 PM 45.0 °F 40.1 °F 39.9 °F 82% 29.81 in 9.0 mi ESE 9.2 mph 17.3 mph 0.03 in Rain Light Rain
11:34 PM 46.4 °F 44.3 °F 44.6 °F 93% 29.66 in 2.5 mi SE 4.6 mph - 0.01 in   Overcast